Regional Weather Roundup
Issued by NWS

Home | Current Version | Previous Version | Text Only | Print | Product List | Glossary Off
Versions: 1 2 3 4 5 6 7 8 9 10 11 12 13 14 15 16 17 18 19 20 21 22 23 24 25 26 27 28 29 30 31 32 33 34 35 36 37 38 39 40 41 42 43 44 45 46 47 48 49 50

000
ASUS43 KOAX 202202
RWRNE

WEATHER ROUNDUP FOR NEBRASKA
NATIONAL WEATHER SERVICE OMAHA NE
500 PM CDT MON OCT 20 2014

NOTES: SATELLITE DATA IS BEING USED TO AUGMENT CLOUD COVER ABOVE
       12000 FEET.
       "FAIR" INDICATES FEW OR NO CLOUDS BELOW 12,000 FEET WITH NO
       SIGNIFICANT WEATHER AND/OR OBSTRUCTIONS TO VISIBILITY.

  * THESE STATIONS DO NOT REPORT WEATHER SUCH AS RAIN...SNOW OR FOG.

NEZ001>004-019>022-054>056-202300-
NEBRASKA PANHANDLE

CITY           SKY/WX    TMP DP  RH WIND       PRES   REMARKS
SCOTTSBLUFF    SUNNY     80  38  22 S15G22    29.99F
ALLIANCE       SUNNY     75  38  26 S15G24    30.02S
CHADRON        SUNNY     80  42  25 S14       29.94F
KIMBALL        SUNNY     76  35  23 S10G20    30.05S
SIDNEY         SUNNY     77  36  22 S14G21    30.06S
$$

NEZ057>060-069>072-079>082-202300-
SOUTHWEST NEBRASKA

CITY           SKY/WX    TMP DP  RH WIND       PRES   REMARKS
NORTH PLATTE   SUNNY     77  39  25 S10       30.05S
IMPERIAL       SUNNY     76  39  26 S15       30.06F
LEXINGTON      SUNNY     78  40  25 S7        30.06S
MCCOOK         SUNNY     78  38  23 S12       30.07S
OGALLALA       SUNNY     78  40  25 S12G21    30.05S
$$

NEZ005>010-023>029-035>040-094-202300-
NORTH CENTRAL NEBRASKA

CITY           SKY/WX    TMP DP  RH WIND       PRES   REMARKS
VALENTINE      SUNNY     79  38  22 S14       30.00F
AINSWORTH      SUNNY     75  39  27 S10       30.03F
BROKEN BOW     SUNNY     75  44  33 S8        30.06F
O`NEILL        SUNNY     73  42  32 CALM      30.05F
ORD            SUNNY     73  41  31 S7        30.04F
THEDFORD       SUNNY     78  39  24 S12       30.04F
$$

NEZ041-046>049-061>064-073>077-083>087-202300-
SOUTH CENTRAL NEBRASKA

CITY           SKY/WX    TMP DP  RH WIND       PRES   REMARKS
GRAND ISLAND   SUNNY     75  39  27 CALM      30.07F
AURORA         SUNNY     74  34  23 CALM      30.06F
HASTINGS       SUNNY     73  38  27 SE5       30.06F
HEBRON         SUNNY     74  34  23 CALM      30.05F
HOLDREGE       SUNNY     75  37  25 CALM      30.07S
KEARNEY *      SUNNY     73  43  33 SE3       30.08S
YORK           SUNNY     72  37  28 CALM      30.06F
$$

NEZ011>018-030>034-042>045-202300-
NORTHEAST NEBRASKA

CITY           SKY/WX    TMP DP  RH WIND       PRES   REMARKS
NORFOLK        SUNNY     72  33  24 MISG      30.05S
ALBION         SUNNY     72  36  26 CALM      30.06S
BLAIR          SUNNY     72  38  28 NW3       30.04F
COLUMBUS *     SUNNY     72  34  25 CALM      30.07S
FREMONT        SUNNY     72  35  26 NW5       30.05S
TEKAMAH        SUNNY     73  36  25 NW6       30.04R
WAYNE          SUNNY     72  34  25 NW5       30.05S
$$

NEZ050>053-065>068-078-088>093-202300-
SOUTHEAST NEBRASKA

CITY           SKY/WX    TMP DP  RH WIND       PRES   REMARKS
LINCOLN        SUNNY     74  36  25 CALM      30.05F
OMAHA EPPLEY   SUNNY     72  37  28 W5        30.04S
BEATRICE       SUNNY     72  39  29 N6        30.05S
FALLS CITY     SUNNY     74  35  24 N3        30.03S
NEBRASKA CITY  SUNNY     71  26  18 N7        30.04S
PLATTSMOUTH    SUNNY     70  33  25 N3        30.05S
$$

NEZ044-045-051>053-067-202300-
OMAHA AREA

CITY           SKY/WX    TMP DP  RH WIND       PRES   REMARKS
OMAHA EPPLEY   SUNNY     72  37  28 W5        30.04S
BLAIR          SUNNY     72  38  28 NW3       30.04F
FREMONT        SUNNY     72  35  26 NW5       30.05S
MILLARD        SUNNY     71  41  33 CALM      30.04S
OFFUTT AFB     SUNNY     71  39  31 VRB1      30.04S
PLATTSMOUTH    SUNNY     70  33  25 N3        30.05S
WAHOO          FAIR      73  28  18 N5        30.04F
$$



USA.gov is the U.S. government's official web portal to all federal, state and local government web resources and services.